Regional Weather Roundup
Issued by NWS

Home | Current Version | Previous Version | Text Only | Print | Product List | Glossary On
Versions: 1 2 3 4 5 6 7 8 9 10 11 12 13 14 15 16 17 18 19 20 21 22 23 24 25 26 27 28 29 30 31 32 33 34 35 36 37 38 39 40 41 42 43 44 45 46 47 48 49 50
000
ASUS44 KOUN 300810
RWROK

WEATHER ROUNDUP FOR OKLAHOMA
NATIONAL WEATHER SERVICE NORMAN OK
300 AM CDT THU JUL 30 2015

NOTE: "FAIR" INDICATES FEW OR NO CLOUDS BELOW 12,000 FEET WITH NO
      SIGNIFICANT WEATHER AND/OR OBSTRUCTIONS TO VISIBILITY.

OKZ001>007-009>012-014-015-017-300900-
NORTHWEST OKLAHOMA AND THE PANHANDLE

CITY           SKY/WX    TMP DP  RH WIND       PRES   REMARKS
GAGE           CLEAR     70  67  90 NE6       30.17F
GUYMON         MOCLDY    69  64  84 E9        30.24F
ENID/WOODRING  PTCLDY    77  70  78 E15       30.11F
$$

OKZ016-021>023-033>039-044-045-300900-
SOUTHWEST OKLAHOMA

CITY           SKY/WX    TMP DP  RH WIND       PRES   REMARKS
LAWTON/REGL    PTCLDY    80  66  62 E3        30.07S
LAWTON/FT SILL PTCLDY    79  67  66 SE6       30.06F
FREDERICK      CLEAR     80  70  71 E8        30.04F
CLINTON        CLEAR     75  71  87 N8        30.15S
HOBART         MOCLDY    78  74  87 NE3       30.11S
ALTUS AFB      CLOUDY    81  67  61 E7        30.08S
$$

OKZ018>020-024>031-300900-
CENTRAL OKLAHOMA

CITY           SKY/WX    TMP DP  RH WIND       PRES   REMARKS
OKLAHOMA CITY  PTCLDY    79  70  74 N8        30.11R
OKC/WILEY POST PTCLDY    80  73  79 NE9       30.11S
OKC/TINKER AFB CLEAR     77  72  85 NE5       30.10R
STILLWATER     PTCLDY    78  71  79 E9        30.12S
GUTHRIE        CLEAR     78  72  81 E9        30.11S
$$

OKZ008-013-054>072-300900-
NORTHEAST OKLAHOMA

CITY           SKY/WX    TMP DP  RH WIND       PRES   REMARKS
TULSA          PTCLDY    79  73  82 N6        30.10S
TULSA/JONES    CLEAR     80  72  76 NE6       30.10S
PONCA CITY     PTCLDY    79  69  71 E14       30.12F
MUSKOGEE       CLEAR     79  76  90 N3        30.09S
$$

OKZ032-040>043-046>053-073>077-300900-
SOUTH CENTRAL/SOUTHEAST OKLAHOMA

CITY           SKY/WX    TMP DP  RH WIND       PRES   REMARKS
ARDMORE/DWNTWN CLEAR     73  66  78 CALM      30.07S
MCALESTER      PTCLDY    81  72  74 NE3       30.07F
$$



USA.gov is the U.S. government's official web portal to all federal, state and local government web resources and services.